GW0092 Weather Reports


Display with metric or nautical units.
time (UTC)temp
F
wind
direction
speed
MPH
gust
MPH
rain 1hr
in
rain 24hr
in
rain mn
in
humidity
%
barometer
mb
20260504081555 53 0 1.0 7.0 0.00 0.00 0.00 82 1017.3
20260504044602 45 0 0.0 1.0 0.00 0.00 0.00 81 1017.2
20260504043054 44 0 0.0 3.0 0.00 0.00 0.00 80 1017.2
20260504041553 42 0 0.0 0.0 0.00 0.00 0.00 78 1017.1
20260504040057 42 0 0.0 0.0 0.00 0.00 0.00 77 1016.8
20260504034615 42 0 0.0 0.0 0.00 0.00 0.00 77 1016.8
20260504033115 42 0 0.0 0.0 0.00 0.00 0.00 77 1016.8
20260504031604 43 0 0.0 0.0 0.00 0.00 0.00 75 1016.6
20260504030054 43 0 0.0 0.0 0.00 0.00 0.00 74 1016.6
20260504024601 43 0 0.0 0.0 0.00 0.00 0.00 73 1016.6
20260504023055 44 0 0.0 0.0 0.00 0.00 0.00 70 1016.5
20260504021554 45 0 0.0 0.0 0.00 0.00 0.00 69 1016.5
20260504020051 45 0 0.0 0.0 0.00 0.00 0.00 69 1016.6
20260504014603 45 0 0.0 0.0 0.00 0.00 0.00 70 1016.7
20260504013055 45 0 0.0 0.0 0.00 0.00 0.00 68 1016.3
20260504011558 45 0 0.0 0.0 0.00 0.00 0.00 67 1016.1
20260504010058 46 0 0.0 0.0 0.00 0.00 0.00 64 1016.0
20260504004553 47 0 0.0 0.0 0.00 0.00 0.00 63 1015.8
20260504003100 49 0 0.0 0.0 0.00 0.00 0.00 59 1015.8
20260504001601 51 0 0.0 0.0 0.00 0.00 0.00 55 1015.4
20260504000053 53 0 0.0 1.0 0.00 0.00 0.00 51 1015.3
20260503234554 55 0 0.0 4.0 0.00 0.00 0.00 45 1015.4
20260503233053 56 342 1.0 6.0 0.00 0.00 0.00 42 1015.3
20260503231551 57 287 2.0 6.0 0.00 0.00 0.00 41 1015.3
20260503230058 59 312 3.0 8.0 0.00 0.00 0.00 39 1015.2
20260503224551 59 335 5.0 12.0 0.00 0.00 0.00 38 1015.1
20260503223052 59 305 5.0 10.0 0.00 0.00 0.00 38 1015.1
20260503221559 59 21 8.0 14.0 0.00 0.00 0.00 37 1015.1
20260503220055 60 316 5.0 11.0 0.00 0.00 0.00 38 1015.1
20260503214549 59 301 8.0 14.0 0.00 0.00 0.00 37 1014.9
20260503213057 60 331 5.0 16.0 0.00 0.00 0.00 37 1014.8
20260503211554 60 4 7.0 16.0 0.00 0.00 0.00 37 1014.6
20260503204556 60 340 6.0 20.0 0.00 0.00 0.00 38 1014.7
20260503203056 60 310 5.0 14.0 0.00 0.00 0.00 37 1014.6
20260503201554 59 281 8.0 17.0 0.00 0.00 0.00 36 1014.5
20260503200057 59 308 6.0 16.0 0.00 0.00 0.00 37 1014.7
20260503194553 59 348 9.0 15.0 0.00 0.00 0.00 36 1014.7
20260503193054 59 321 8.0 16.0 0.00 0.00 0.00 36 1014.9
20260503191551 59 327 8.0 16.0 0.00 0.00 0.00 37 1014.8
20260503190055 59 335 8.0 15.0 0.00 0.00 0.00 37 1014.8
20260503184610 58 269 8.0 18.0 0.00 0.00 0.00 38 1014.9
20260503183106 58 346 11.0 19.0 0.00 0.00 0.00 37 1015.3
20260503181607 58 323 7.0 17.0 0.00 0.00 0.00 39 1015.5
20260503180056 57 333 10.0 23.0 0.00 0.00 0.00 38 1015.5
20260503174556 57 347 8.0 17.0 0.00 0.00 0.00 39 1015.5
20260503173058 56 297 7.0 17.0 0.00 0.00 0.00 41 1015.4
20260503171552 56 352 9.0 17.0 0.00 0.00 0.00 41 1015.4